Hourly Weather Roundup
Issued by NWS Central Illinois

Home | Current Version | Previous Version | Text Only | Print | Product List | Glossary On
Versions: 1 2 3 4 5 6 7 8 9 10 11 12 13 14 15 16 17 18 19 20 21 22 23 24 25 26 27 28 29 30 31 32 33 34 35 36 37 38 39 40 41 42 43 44 45 46 47 48 49 50
000
NZUS43 KILX 110410
HWRILX

AREA WEATHER ROUNDUP
NATIONAL WEATHER SERVICE, LINCOLN IL
1000 PM CST WED FEB 10 2016


CITY           SKY/WX    TMP DP  RH WIND       PRES   REMARKS
BLOOMINGTON    PTCLDY    15   7  71 NW6       30.16R WCI   6
CHAMPAIGN      MOCLDY    13   7  77 NW6       30.16R WCI   4
DANVILLE       CLOUDY    14   7  73 W3        30.13R
DECATUR        CLOUDY    20  12  71 W7        30.16S WCI  11
EFFINGHAM      FLURRIES  21  18  87 W3        30.19S
FLORA          CLOUDY    22  18  85 CALM      30.19S
GALESBURG      PTCLDY    14   8  76 N7        30.17R WCI   3
JACKSONVILLE   FLURRIES  21  17  84 CALM      30.17R
LACON          PTCLDY    14   4  64 N7        30.18R WCI   4
LAWRENCEVILLE  MOCLDY    17  13  84 NW5       30.20R WCI  10
LITCHFIELD     CLOUDY    19  16  86 CALM      30.16R
$$


CITY           SKY/WX    TMP DP  RH WIND       PRES   REMARKS
LINCOLN        CLOUDY    19  13  75 CALM      30.18R
MACOMB         CLOUDY    19  14  82 CALM      30.19S
MATTOON        MOCLDY    17  11  77 W7        30.15S WCI   8
MT CARMEL AP   CLOUDY    23  18  80 W6        30.19S WCI  16
OLNEY-NOBLE AP CLOUDY    21  18  86 W5        30.20R WCI  15
PARIS          CLEAR     15  10  80 W7        30.17S WCI   5
PEORIA         CLOUDY    16   7  67 CALM      30.18R
PONTIAC        MOCLDY    15   8  75 NW5       30.18R WCI   7
RANTOUL        PTCLDY    16   8  72 NW5       30.16R WCI   8
ROBINSON       CLEAR     15  11  85 CALM      30.20S
SPRINGFIELD    CLOUDY    21  15  78 NW3       30.18R
TAYLORVILLE    CLOUDY    19  18  93 CALM      30.17S
$$

...REGIONAL REPORTS...


CITY           SKY/WX    TMP DP  RH WIND       PRES   REMARKS
CHICAGO O`HARE PTCLDY    11   1  64 NW5       30.16R WCI   3
KANKAKEE       CLEAR     14   5  68 NW3       30.17R
MOLINE         PTCLDY    15   3  59 N6        30.19R WCI   6
MOUNT STERLING CLOUDY    18  15  86 CALM      30.16R
MOUNT VERNON   CLOUDY    21  16  79 CALM      30.18S
PITTSFIELD     CLOUDY    21  18  89 NE5       30.16S WCI  14
QUINCY         CLOUDY    20  15  81 NE9       30.16R WCI   9
ROCKFORD       MOCLDY    10   1  67 W3        30.20R
$$


CITY           SKY/WX    TMP DP  RH WIND       PRES   REMARKS
BURLINGTON     CLOUDY    19  12  74 N5        30.17R WCI  12
CEDAR RAPIDS   CLOUDY    13   3  64 N12       30.18R WCI  -1
DES MOINES     CLOUDY    18  10  71 NE6       30.18R WCI  10
KIRKSVILLE     CLOUDY    21  16  81 NE9       30.14R WCI  11
OTTUMWA        CLOUDY    18  13  80 NE7       30.17R WCI   9
ST LOUIS       CLOUDY    24  18  77 SE5       30.16R WCI  18
$$


CITY           SKY/WX    TMP DP  RH WIND       PRES   REMARKS
TERRE HAUTE    PTCLDY    17   7  64 W6        30.17R WCI   9
EVANSVILLE     CLOUDY    23  16  74 SW3       30.20S
INDIANAPOLIS   MOCLDY    12   5  73 NW6       30.13R WCI   3
LAFAYETTE      CLEAR      9   4  80 NW7       30.15R WCI  -2
MADISON        PTCLDY     7  -3  64 NW5       30.16R WCI  -2
MILWAUKEE      PTCLDY    10  -2  58 NW8       30.15R WCI  -2
$$





USA.gov is the U.S. government's official web portal to all federal, state and local government web resources and services.